Pearl, MS

6:35 PM CST on January 24, 2017 (GMT -0600)
Jackson-Evers International

Weather History for KJAN - September, 2012

Change the Weather History Date:

Sunday, September 30, 2012

  Actual Average Record
Temperature  
Mean Temperature 71 °F 71 °F  
Max Temperature 76 °F 82 °F 97 °F (1927)
Min Temperature 65 °F 59 °F 37 °F (1967)
Degree Days  
Heating Degree Days 0 1  
Month to date heating degree days 1 6  
Since 1 July heating degree days 1 7  
Cooling Degree Days 6 6  
Month to date cooling degree days 332 327  
Year to date cooling degree days 2437 2126  
Growing Degree Days 20 (Base 50)    
Moisture  
Dew Point 68 °F    
Average Humidity 94    
Maximum Humidity 100    
Minimum Humidity 87    
Precipitation  
Precipitation 1.42 in 0.11 in 3.70 in (1915)
Month to date precipitation 4.12 3.03  
Year to date precipitation 56.83 40.31  
Sea Level Pressure  
Sea Level Pressure 29.70 in    
Wind  
Wind Speed 7 mph (East)    
Max Wind Speed 16 mph    
Max Gust Speed 21 mph    
Visibility 6 miles    
Events Rain    
T = Trace of Precipitation, MM = Missing Value Source: NWS Daily Summary

Daily Weather History Graph

Daily Weather History Graph

Search for Another Location

Airport or City:

Trip Planner

Search our weather history database for the weather conditions in past years. The results will help you decide how hot, cold, wet, or windy it might be!

Date:

Astronomy

Sep. 30, 2012 Rise Set
Actual Time 6:53 AM CDT 6:45 PM CDT
Civil Twilight 6:29 AM CDT 7:10 PM CDT
Nautical Twilight 6:01 AM CDT 7:38 PM CDT
Astronomical Twilight 5:32 AM CDT 8:07 PM CDT
Moon 6:55 PM CDT (9/30) 7:19 AM CDT (9/30)
Length of Visible Light 12h 40m
Length of Day
11h 51m
Full, 100% of the Moon is Illuminated
Sep 30
Full
Oct 8
Last Quarter
Oct 15
New
Oct 21
First Quarter
Oct 29
Full

Hourly Weather History & Observations

Time (CDT) Temp. Dew Point Humidity Pressure Visibility Wind Dir Wind Speed Gust Speed Precip Events Conditions
12:06 AM 69.8 °F 66.2 °F 88% 29.89 in 3.0 mi East 5.8 mph - 0.01 in Rain Light Rain
12:54 AM 69.1 °F 66.9 °F 93% 29.87 in 2.0 mi Calm Calm - 0.07 in Rain Heavy Rain
1:09 AM 69.8 °F 66.2 °F 88% 29.87 in 3.0 mi NE 4.6 mph - 0.05 in Rain Light Rain
1:47 AM 68.0 °F 66.2 °F 94% 29.86 in 6.0 mi ENE 5.8 mph - 0.05 in Rain Light Rain
1:54 AM 68.0 °F 66.9 °F 96% 29.85 in 6.0 mi NE 5.8 mph - 0.05 in Rain Light Rain
2:21 AM 68.0 °F 66.2 °F 94% 29.86 in 6.0 mi NE 4.6 mph - 0.01 in   Overcast
2:27 AM 68.0 °F 66.2 °F 94% 29.85 in 7.0 mi NE 6.9 mph - 0.01 in   Overcast
2:54 AM 68.0 °F 66.0 °F 93% 29.83 in 10.0 mi ENE 4.6 mph - 0.01 in   Overcast
3:24 AM 68.0 °F 64.4 °F 88% 29.84 in 10.0 mi East 4.6 mph - N/A   Overcast
3:50 AM 66.2 °F 64.4 °F 94% 29.83 in 10.0 mi ENE 4.6 mph - N/A   Overcast
3:54 AM 66.9 °F 66.0 °F 97% 29.82 in 9.0 mi ENE 3.5 mph - N/A   Overcast
4:06 AM 66.2 °F 66.2 °F 100% 29.82 in 3.0 mi ENE 4.6 mph - 0.00 in Rain Light Rain
4:29 AM 66.2 °F 64.4 °F 94% 29.81 in 5.0 mi East 5.8 mph - 0.01 in Rain Light Rain
4:44 AM 66.2 °F 64.4 °F 94% 29.81 in 3.0 mi East 5.8 mph - 0.03 in Rain Rain
4:54 AM 66.9 °F 64.9 °F 93% 29.79 in 3.0 mi ENE 3.5 mph - 0.04 in Rain Heavy Rain
5:06 AM 66.2 °F 64.4 °F 94% 29.80 in 4.0 mi ENE 4.6 mph - 0.03 in Rain Light Rain
5:54 AM 66.9 °F 64.9 °F 93% 29.78 in 4.0 mi ENE 5.8 mph - 0.08 in Rain Rain
6:42 AM 66.2 °F 66.2 °F 100% 29.78 in 10.0 mi ENE 5.8 mph - 0.04 in   Overcast
6:54 AM 66.9 °F 64.9 °F 93% 29.77 in 10.0 mi ENE 6.9 mph - 0.04 in   Overcast
7:54 AM 68.0 °F 66.0 °F 93% 29.76 in 10.0 mi East 5.8 mph - 0.01 in   Overcast
8:42 AM 68.0 °F 66.2 °F 94% 29.76 in 5.0 mi East 9.2 mph - 0.01 in Rain Rain
8:44 AM 68.0 °F 66.2 °F 94% 29.76 in 1.0 mi East 10.4 mph - 0.01 in Rain Rain
8:54 AM 68.0 °F 66.0 °F 93% 29.74 in 1.0 mi East 8.1 mph - 0.03 in Rain Rain
9:36 AM 68.0 °F 66.2 °F 94% 29.77 in 1.5 mi ESE 6.9 mph - 0.25 in Rain Heavy Rain
9:43 AM 68.0 °F 66.2 °F 94% 29.76 in 1.2 mi East 6.9 mph - 0.32 in Rain Heavy Rain
9:54 AM 69.1 °F 66.9 °F 93% 29.75 in 1.0 mi East 8.1 mph - 0.43 in Rain Heavy Rain
9:59 AM 69.8 °F 66.2 °F 88% 29.76 in 1.0 mi East 6.9 mph - 0.05 in Rain Heavy Rain
10:07 AM 69.8 °F 66.2 °F 88% 29.76 in 2.0 mi SE 8.1 mph - 0.12 in Rain Rain
10:19 AM 69.8 °F 66.2 °F 88% 29.76 in 1.2 mi SSE 8.1 mph - 0.14 in Rain Heavy Rain
10:32 AM 69.8 °F 68.0 °F 94% 29.75 in 3.0 mi SE 5.8 mph - 0.18 in Rain Light Rain
10:44 AM 69.8 °F 68.0 °F 94% 29.74 in 2.0 mi ESE 10.4 mph - 0.20 in Rain Rain
10:54 AM 70.0 °F 68.0 °F 93% 29.73 in 8.0 mi East 8.1 mph - 0.21 in Rain Light Rain
11:10 AM 71.6 °F 69.8 °F 94% 29.73 in 10.0 mi ESE 8.1 mph - 0.00 in Rain Light Rain
11:26 AM 71.6 °F 69.8 °F 94% 29.73 in 10.0 mi ESE 8.1 mph - 0.01 in   Overcast
11:41 AM 71.6 °F 69.8 °F 94% 29.72 in 10.0 mi ESE 5.8 mph - 0.01 in Rain Light Rain
11:49 AM 71.6 °F 69.8 °F 94% 29.72 in 4.0 mi Calm Calm - 0.01 in Rain Rain
11:54 AM 71.1 °F 69.1 °F 93% 29.71 in 1.8 mi East 3.5 mph - 0.03 in Rain Heavy Rain
12:00 PM 71.6 °F 69.8 °F 94% 29.72 in 2.0 mi Calm Calm - 0.06 in Rain Rain
12:11 PM 71.6 °F 69.8 °F 94% 29.72 in 5.0 mi SE 3.5 mph - 0.07 in Rain Light Rain
12:42 PM 71.6 °F 69.8 °F 94% 29.71 in 7.0 mi SE 3.5 mph - 0.09 in Rain Light Rain
12:44 PM 71.6 °F 69.8 °F 94% 29.71 in 7.0 mi Calm Calm - 0.09 in Rain Light Rain
12:54 PM 72.0 °F 70.0 °F 93% 29.69 in 8.0 mi East 4.6 mph - 0.10 in Rain Light Rain
1:05 PM 71.6 °F 69.8 °F 94% 29.69 in 1.5 mi Variable 4.6 mph - 0.00 in Rain Rain
1:12 PM 71.6 °F 69.8 °F 94% 29.69 in 2.0 mi Calm Calm - 0.15 in Rain Heavy Rain
1:23 PM 71.6 °F 69.8 °F 94% 29.69 in 4.0 mi Calm Calm - 0.19 in Rain Rain
1:54 PM 72.0 °F 70.0 °F 93% 29.65 in 7.0 mi East 6.9 mph - 0.20 in Rain Light Rain
2:51 PM 73.4 °F 69.8 °F 88% 29.63 in 10.0 mi ESE 8.1 mph - 0.01 in Rain Light Rain
2:54 PM 73.4 °F 71.6 °F 94% 29.63 in 10.0 mi ESE 4.6 mph - N/A Rain Light Rain
3:06 PM 73.4 °F 71.6 °F 94% 29.63 in 10.0 mi Variable 4.6 mph - 0.00 in Rain Light Rain
3:10 PM 73.4 °F 71.6 °F 94% 29.62 in 8.0 mi SE 5.8 mph - 0.00 in Rain Light Rain
3:54 PM 73.0 °F 72.0 °F 96% 29.58 in 10.0 mi East 4.6 mph - 0.03 in Rain Light Rain
4:02 PM 73.4 °F 71.6 °F 94% 29.58 in 10.0 mi East 6.9 mph - 0.00 in   Mostly Cloudy
4:54 PM 75.9 °F 73.0 °F 91% 29.56 in 10.0 mi ESE 10.4 mph - 0.00 in   Mostly Cloudy
5:18 PM 75.2 °F 73.4 °F 94% 29.57 in 10.0 mi ESE 5.8 mph - N/A   Overcast
5:54 PM 75.9 °F 73.0 °F 91% 29.56 in 10.0 mi ESE 9.2 mph - N/A   Overcast
6:54 PM 75.0 °F 72.0 °F 90% 29.53 in 9.0 mi ESE 10.4 mph - 0.01 in Rain Light Rain
7:54 PM 75.0 °F 72.0 °F 90% 29.51 in 10.0 mi SE 11.5 mph 19.6 mph 0.01 in   Overcast
8:54 PM 75.0 °F 72.0 °F 90% 29.52 in 10.0 mi SSE 10.4 mph - N/A   Overcast
9:54 PM 75.0 °F 72.0 °F 90% 29.53 in 10.0 mi South 10.4 mph - N/A   Overcast
10:27 PM 75.2 °F 71.6 °F 89% 29.53 in 9.0 mi South 9.2 mph - 0.02 in Rain Light Rain
10:39 PM 73.4 °F 71.6 °F 94% 29.52 in 5.0 mi SSE 8.1 mph - 0.07 in Rain Light Rain
10:54 PM 73.9 °F 73.0 °F 97% 29.51 in 10.0 mi South 4.6 mph - 0.07 in   Overcast
11:04 PM 73.4 °F 73.4 °F 100% 29.52 in 10.0 mi Variable 4.6 mph - 0.00 in Rain Light Rain
11:06 PM 73.4 °F 71.6 °F 94% 29.52 in 5.0 mi West 4.6 mph - 0.00 in Rain Light Rain
11:09 PM 73.4 °F 71.6 °F 94% 29.52 in 2.5 mi Variable 6.9 mph - 0.00 in Rain Heavy Rain
11:21 PM 69.8 °F 69.8 °F 100% 29.53 in 10.0 mi NW 9.2 mph - N/A Rain Light Rain
11:54 PM 66.9 °F 66.0 °F 97% 29.52 in 10.0 mi North 3.5 mph - 0.07 in   Overcast